カタログに戻る

COSMOS 2251 DEB

運用中LEO
NORAD 34964·DEBRIS·🇷🇺 Russia

打ち上げ Jun 16, 1993 から Plesetsk Cosmodrome

Loading…

次のパス (今後24時間)

TLE

古いSource: Space-Track

元期: Aug 22, 2026, 20:07 UTC

1 34964U 93036AET 26234.83841504  .00001486  00000-0  82373-3 0  9992
2 34964  73.9683 266.9057 0207762  70.1551 292.1845 14.01696344880232

AllMySatでCOSMOS 2251 DEBをリアルタイム追跡

Download on the App Store